[[{"header":{"parameterUnit":"m.s-1","parameterCategory":1,"la1":30.2991,"la2":30.254,"lo1":-89.0895,"lo2":-89.0444,"dy":0.0017,"dx":0.0017,"nx":28,"ny":28,"refTime":"2024-10-13T21:00:00:Z","depth":0,"parameterNumber":2,"parameterNumberName":"U-component_of_WINDS"},"data":[0,0,0,0,0,0,0,0,0,0,0,0,0,0,0,0,0,0,0,0,0,0,0,0,0,0,0,0,0,0,0,0,0,0,0,0,0,0,0,0,0,0,0,0,0,0,0,0,0,0,0,0,0,0,0,0,0,0,-1.8753,-1.8755,0,-1.8917,-1.8918,-1.892,-1.9107,-1.911,-1.9113,-1.9115,-1.9273,-1.9274,-1.9276,0,0,0,0,0,0,0,0,0,0,0,0,0,-1.8593,-1.8595,-1.8753,-1.8755,-1.8757,-1.8916,-1.8918,-1.8921,-1.9106,-1.911,-1.9113,-1.9117,-1.9272,-1.9274,-1.9276,0,0,0,0,0,0,0,0,0,0,0,0,0,-1.87,-1.8596,-1.8753,-1.8869,-1.8881,-1.8916,-1.8919,-1.8921,-1.9106,-1.911,-1.9114,-1.9118,-1.9272,-1.9274,-1.9276,-1.9206,0,0,-1.9283,-1.9284,0,0,0,0,0,0,0,0,-1.8693,-1.8705,-1.885,-1.8861,-1.8875,-1.8996,-1.892,-1.9016,-1.9105,-1.902,-1.9115,-1.912,-1.9176,-1.9187,-1.9208,-1.9213,-1.922,-1.9283,-1.9285,-1.9286,-1.9287,0,0,0,0,0,0,0,-1.8686,-1.8699,-1.8818,-1.8852,-1.8867,-1.8911,-1.893,-1.8939,-1.9072,-1.9028,-1.9042,-1.9059,-1.9184,-1.9205,-1.9213,-1.9222,-1.9283,-1.9285,-1.9287,-1.9288,-1.9175,-1.9171,0,0,0,0,0,0,-1.8662,-1.8692,-1.8812,-1.8822,-1.8793,-1.891,-1.8932,-1.8953,-1.9073,-1.9095,-1.9055,-1.9067,-1.9199,-1.921,-1.9219,-1.9141,-1.9286,-1.9288,-1.9289,-1.9179,-1.9174,-1.9169,0,0,0,0,0,0,-1.8658,-1.8671,-1.8806,-1.8761,-1.8782,-1.8908,-1.893,-1.8954,-1.8975,-1.9094,-1.9117,-1.9053,-1.9203,-1.9216,-1.9208,-1.9149,-1.9289,-1.9291,-1.9185,-1.9178,-1.9172,-1.8986,0,0,0,0,0,0,-1.8653,-1.8669,-1.8645,-1.8759,-1.8783,-1.8793,-1.8926,-1.8954,-1.898,-1.8997,-1.9098,-1.9118,-1.9207,-1.9203,-1.921,-1.9155,-1.9293,-1.919,-1.9182,-1.9174,-1.8998,-1.8974,-1.8954,0,0,0,0,0,-1.8646,-1.8585,-1.8643,-1.8656,-1.8757,-1.879,-1.8803,-1.8909,-1.8975,-1.895,-1.9026,-1.9115,-1.9156,-1.9201,-1.921,-1.9155,-1.9194,-1.9184,-1.9174,-1.9008,-1.8979,-1.8954,0,0,0,0,0,0,-1.8456,-1.8602,-1.8668,-1.8642,-1.8703,-1.8821,-1.8793,-1.8876,-1.8916,-1.893,-1.9058,-1.9079,-1.9054,-1.9105,-1.9152,-1.9092,-1.9188,-1.9179,-1.9058,-1.9032,-1.901,-1.8995,-1.9295,0,0,0,0,0,-1.8413,-1.843,-1.8555,-1.852,-1.8548,-1.8665,-1.8683,-1.8761,-1.8827,-1.8852,-1.8928,-1.8986,-1.9012,-1.9026,-1.9057,-1.9009,-1.9031,-1.8976,-1.8953,-1.8935,-1.8923,-1.8898,-1.8873,-1.9137,-1.9137,-1.9137,0,0,-1.832,-1.8402,-1.8404,-1.8484,-1.854,-1.8551,-1.8685,-1.8692,-1.87,-1.8852,-1.8848,-1.8906,-1.898,-1.895,-1.8941,-1.8992,-1.8857,-1.8922,-1.8906,-1.8905,-1.8885,-1.886,-1.8837,-1.913,-1.9131,-1.9132,0,0,-1.8156,-1.8222,-1.8198,-1.8252,-1.8337,-1.8416,-1.841,-1.8517,-1.8561,-1.8561,-1.8674,-1.8686,-1.8729,-1.8775,-1.8804,-1.866,-1.8741,-1.8667,-1.8548,-1.8521,-1.85,-1.8482,-1.8425,-1.8403,-1.8657,-1.8656,-1.8656,0,-1.8028,-1.8053,-1.8175,-1.8175,-1.8205,-1.8348,-1.8322,-1.8368,-1.8456,-1.8471,-1.8529,-1.8585,-1.8645,-1.8626,-1.8591,-1.8613,-1.8606,-1.8652,-1.8494,-1.8478,-1.8462,-1.8409,-1.8387,-1.8646,-1.8647,-1.8648,-1.8649,0,-1.789,-1.7905,-1.7876,-1.796,-1.7988,-1.7975,-1.8091,-1.8104,-1.818,-1.8251,-1.8247,-1.8325,-1.8372,-1.8375,-1.8448,-1.8366,-1.8394,-1.8472,-1.8569,-1.8425,-1.8376,-1.8357,-1.8632,-1.8635,-1.8638,-1.8641,0,0,-1.7605,-1.7759,-1.7746,-1.7784,-1.7889,-1.7901,-1.7894,-1.7944,-1.795,-1.8007,-1.8,-1.8035,-1.8107,-1.814,-1.822,-1.8198,-1.8071,-1.8278,-1.8281,-1.8231,-1.7979,-1.7915,-1.7889,-1.8129,-1.8126,-1.8124,-1.7971,0,-1.7454,-1.7453,-1.7562,-1.7528,-1.7541,-1.7679,-1.7672,-1.7733,-1.78,-1.7819,-1.7894,-1.7913,-1.801,-1.803,-1.8015,-1.809,-1.8021,-1.8104,-1.8118,-1.8117,-1.8088,-1.7865,-1.7798,-1.765,-1.7953,-1.795,-1.7948,0,-1.7277,-1.7326,-1.7293,-1.7398,-1.7408,-1.74,-1.7453,-1.7472,-1.7543,-1.7594,-1.7631,-1.7724,-1.772,-1.7818,-1.7813,-1.7866,-1.788,-1.7917,-1.7914,-1.7913,-1.8018,-1.7851,-1.7606,-1.758,-1.7921,-1.7923,-1.7925,0,-1.7064,-1.7123,-1.7111,-1.7141,-1.7264,-1.7254,-1.7305,-1.7382,-1.7403,-1.745,-1.7465,-1.7509,-1.7531,-1.7562,-1.7663,-1.7726,-1.7643,-1.7751,-1.768,-1.7676,-1.7649,-1.7648,-1.7395,-1.767,-1.767,-1.7671,-1.7671,0,-1.6881,-1.6853,-1.7017,-1.7007,-1.6981,-1.7108,-1.7076,-1.714,-1.7207,-1.721,-1.7333,-1.7332,-1.7469,-1.7483,-1.7562,-1.7542,-1.7553,-1.759,-1.7609,-1.7575,-1.7568,-1.7579,-1.7589,-1.7665,-1.7666,-1.7668,-1.7668,0,-1.6635,-1.6745,-1.6739,-1.6858,-1.6887,-1.686,-1.696,-1.6955,-1.7033,-1.7035,-1.7043,-1.7161,-1.7184,-1.729,-1.7338,-1.7391,-1.7341,-1.7386,-1.7316,-1.7328,-1.7248,-1.7251,-1.6987,-1.6956,-1.7257,-1.7254,-1.7251,0,-1.6507,-1.649,-1.6607,-1.662,-1.6665,-1.6684,-1.6708,-1.6833,-1.6852,-1.6933,-1.6916,-1.695,-1.6983,-1.7013,-1.7101,-1.7137,-1.7179,-1.7084,-1.7185,-1.7149,-1.7169,-1.7166,-1.7162,-1.7059,-1.7055,-1.7052,-1.705,0,-1.6265,-1.6321,-1.6352,-1.6402,-1.6428,-1.6472,-1.6524,-1.6526,-1.6664,-1.6679,-1.6706,-1.6731,-1.6781,-1.6811,-1.6862,-1.6911,-1.6999,-1.7019,-1.7003,-1.6962,-1.692,-1.6935,-1.7249,-1.7022,-1.7025,-1.7027,-1.7028,-1.703,-1.6071,-1.606,-1.6141,-1.6171,-1.6224,-1.6269,-1.6269,-1.6348,-1.6373,-1.6424,-1.6497,-1.6512,-1.6583,-1.6662,-1.6704,-1.6716,-1.6767,-1.6745,-1.6739,-1.6729,-1.6709,-1.6925,-1.6726,-1.6727,-1.6728,-1.6729,-1.673,0,-1.5829,-1.5889,-1.5916,-1.5985,-1.6008,-1.6098,-1.6159,-1.617,-1.6183,-1.6244,-1.6275,-1.6303,-1.6333,-1.6425,-1.6463,-1.6454,-1.6496,-1.6459,-1.6457,-1.6465,-1.6664,-1.6671,-1.6425,-1.6425,-1.6425,-1.6425,-1.6425,-1.6425,-1.5706,-1.5692,-1.5756,-1.5768,-1.5829,-1.5846,-1.5873,-1.5914,-1.5963,-1.599,-1.6016,-1.6078,-1.615,-1.6194,-1.6224,-1.6251,-1.6255,-1.6203,-1.6241,-1.6423,-1.6452,-1.648,-1.6486,-1.6205,-1.6205,-1.6041,-1.604,-1.6038]},{"header":{"parameterUnit":"m.s-1","parameterCategory":1,"la1":30.2991,"la2":30.254,"lo1":-89.0895,"lo2":-89.0444,"dy":0.0017,"dx":0.0017,"nx":28,"ny":28,"refTime":"2024-10-13T21:00:00:Z","depth":0,"parameterNumber":3,"parameterNumberName":"V-component_of_WINDS"},"data":[0,0,0,0,0,0,0,0,0,0,0,0,0,0,0,0,0,0,0,0,0,0,0,0,0,0,0,0,0,0,0,0,0,0,0,0,0,0,0,0,0,0,0,0,0,0,0,0,0,0,0,0,0,0,0,0,0,0,-1.1892,-1.1893,0,-1.1963,-1.1964,-1.1965,-1.2034,-1.2035,-1.2036,-1.2036,-1.2107,-1.2108,-1.2109,0,0,0,0,0,0,0,0,0,0,0,0,0,-1.1813,-1.1814,-1.1892,-1.1893,-1.1894,-1.1963,-1.1964,-1.1965,-1.2034,-1.2035,-1.2036,-1.2037,-1.2107,-1.2108,-1.2109,0,0,0,0,0,0,0,0,0,0,0,0,0,-1.1862,-1.1814,-1.1892,-1.1936,-1.1941,-1.1963,-1.1964,-1.1965,-1.2033,-1.2035,-1.2036,-1.2037,-1.2107,-1.2108,-1.211,-1.2093,0,0,-1.2114,-1.2115,0,0,0,0,0,0,0,0,-1.1859,-1.1865,-1.1929,-1.1933,-1.1939,-1.1991,-1.1962,-1.2008,-1.2033,-1.1998,-1.2036,-1.2038,-1.2067,-1.2072,-1.2083,-1.2096,-1.2099,-1.2115,-1.2116,-1.2116,-1.2117,0,0,0,0,0,0,0,-1.1856,-1.1862,-1.192,-1.193,-1.1936,-1.1952,-1.1961,-1.1971,-1.2024,-1.2001,-1.2007,-1.2014,-1.207,-1.2081,-1.2085,-1.21,-1.2115,-1.2116,-1.2117,-1.2118,-1.2102,-1.2101,0,0,0,0,0,0,-1.1846,-1.1859,-1.1918,-1.1922,-1.1901,-1.1952,-1.1962,-1.1973,-1.2024,-1.2034,-1.2013,-1.2017,-1.2078,-1.2083,-1.2088,-1.207,-1.2116,-1.2118,-1.2119,-1.2104,-1.2102,-1.21,0,0,0,0,0,0,-1.1844,-1.185,-1.1915,-1.1892,-1.1901,-1.1952,-1.1964,-1.1974,-1.1984,-1.2033,-1.2043,-1.2014,-1.2079,-1.2085,-1.2091,-1.2073,-1.2118,-1.212,-1.2105,-1.2103,-1.2101,-1.2035,0,0,0,0,0,0,-1.1841,-1.1849,-1.1843,-1.1891,-1.1902,-1.1917,-1.1963,-1.1974,-1.1987,-1.1993,-1.2037,-1.2045,-1.208,-1.2088,-1.2092,-1.2076,-1.2121,-1.2107,-1.2104,-1.2102,-1.2039,-1.2031,-1.2024,0,0,0,0,0,-1.1838,-1.1822,-1.1843,-1.185,-1.1897,-1.1916,-1.1922,-1.1963,-1.1985,-1.198,-1.2011,-1.2044,-1.2075,-1.2088,-1.2094,-1.2078,-1.2108,-1.2105,-1.2102,-1.2042,-1.2032,-1.2024,0,0,0,0,0,0,-1.1769,-1.1829,-1.1853,-1.1852,-1.1878,-1.1928,-1.1922,-1.1952,-1.1972,-1.1977,-1.2027,-1.2036,-1.2036,-1.2058,-1.2071,-1.2064,-1.2096,-1.2094,-1.2049,-1.204,-1.2033,-1.2026,-1.2122,0,0,0,0,0,-1.1754,-1.1766,-1.1817,-1.1811,-1.1823,-1.187,-1.188,-1.191,-1.1939,-1.195,-1.1983,-1.2009,-1.2025,-1.2034,-1.2052,-1.2043,-1.2053,-1.2035,-1.2028,-1.2021,-1.2018,-1.2014,-1.2006,-1.209,-1.209,-1.209,0,0,-1.1723,-1.1757,-1.1761,-1.1798,-1.1822,-1.1832,-1.1879,-1.1888,-1.1895,-1.1952,-1.1958,-1.1983,-1.2016,-1.2014,-1.2015,-1.2032,-1.1998,-1.2018,-1.2012,-1.2012,-1.201,-1.2002,-1.1995,-1.2088,-1.2089,-1.2089,0,0,-1.167,-1.1697,-1.1695,-1.1718,-1.1755,-1.1786,-1.1786,-1.1831,-1.1849,-1.1857,-1.19,-1.1909,-1.1936,-1.1957,-1.1972,-1.1928,-1.1958,-1.1933,-1.1893,-1.1888,-1.1882,-1.1876,-1.1858,-1.1852,-1.193,-1.193,-1.1929,0,-1.1625,-1.1643,-1.1689,-1.1695,-1.171,-1.1763,-1.176,-1.1781,-1.182,-1.1829,-1.1849,-1.1883,-1.1909,-1.1912,-1.1901,-1.1912,-1.1912,-1.1926,-1.1879,-1.1874,-1.1869,-1.1853,-1.1846,-1.1926,-1.1926,-1.1927,-1.1927,0,-1.1585,-1.1597,-1.1591,-1.1628,-1.1643,-1.1644,-1.169,-1.1699,-1.1728,-1.1757,-1.1764,-1.1798,-1.1822,-1.1826,-1.1854,-1.1833,-1.1842,-1.187,-1.1903,-1.1857,-1.1842,-1.1837,-1.1921,-1.1922,-1.1923,-1.1924,0,0,-1.1489,-1.1553,-1.155,-1.1567,-1.1612,-1.1622,-1.1626,-1.1651,-1.1656,-1.1683,-1.1686,-1.1708,-1.1734,-1.175,-1.1781,-1.1777,-1.1738,-1.1805,-1.1807,-1.179,-1.1715,-1.1692,-1.1684,-1.176,-1.1759,-1.1758,-1.1712,0,-1.1441,-1.1452,-1.1495,-1.1492,-1.1502,-1.1554,-1.1557,-1.1584,-1.1612,-1.1624,-1.1655,-1.1669,-1.1703,-1.1713,-1.1712,-1.1743,-1.1724,-1.1748,-1.1762,-1.1762,-1.1749,-1.1677,-1.1653,-1.1607,-1.1707,-1.1706,-1.1705,0,-1.1387,-1.141,-1.1409,-1.1453,-1.1459,-1.1461,-1.1487,-1.15,-1.1531,-1.1552,-1.157,-1.1606,-1.1612,-1.1645,-1.1653,-1.1668,-1.1677,-1.1694,-1.1693,-1.1693,-1.1728,-1.1673,-1.1594,-1.1586,-1.1697,-1.1698,-1.1698,0,-1.1314,-1.1345,-1.1348,-1.1362,-1.1414,-1.1414,-1.1436,-1.147,-1.1482,-1.1505,-1.1513,-1.1536,-1.1548,-1.1565,-1.1605,-1.1626,-1.1608,-1.1645,-1.1624,-1.1622,-1.1615,-1.1614,-1.1533,-1.1625,-1.1625,-1.1625,-1.1626,0,-1.1255,-1.1251,-1.1316,-1.1317,-1.1315,-1.1364,-1.136,-1.1386,-1.1416,-1.1423,-1.147,-1.1475,-1.1529,-1.154,-1.1572,-1.1573,-1.1579,-1.1594,-1.1602,-1.1588,-1.1586,-1.1592,-1.1596,-1.1624,-1.1624,-1.1624,-1.1625,0,-1.1171,-1.1215,-1.1221,-1.1271,-1.1283,-1.1279,-1.1321,-1.1324,-1.1355,-1.1363,-1.1368,-1.1417,-1.1432,-1.1475,-1.1502,-1.1523,-1.1514,-1.1531,-1.1503,-1.1508,-1.1483,-1.1483,-1.1401,-1.1391,-1.1491,-1.1491,-1.149,0,-1.1129,-1.1128,-1.1178,-1.1186,-1.1206,-1.1219,-1.1232,-1.1281,-1.1292,-1.1329,-1.1327,-1.1347,-1.1365,-1.1387,-1.1424,-1.1445,-1.1461,-1.1431,-1.1464,-1.145,-1.1457,-1.1456,-1.1455,-1.1422,-1.1421,-1.142,-1.1419,0,-1.1049,-1.1071,-1.1088,-1.1113,-1.1127,-1.1149,-1.1173,-1.1177,-1.1232,-1.1242,-1.1259,-1.1273,-1.1301,-1.1319,-1.1346,-1.1368,-1.1401,-1.1409,-1.1404,-1.1388,-1.1371,-1.1378,-1.148,-1.1409,-1.141,-1.1411,-1.1411,-1.1412,-1.0984,-1.0984,-1.102,-1.1037,-1.1061,-1.1082,-1.1087,-1.112,-1.1135,-1.1162,-1.119,-1.1203,-1.1236,-1.1275,-1.1294,-1.1305,-1.1323,-1.1317,-1.1315,-1.1312,-1.1305,-1.1372,-1.131,-1.1311,-1.1311,-1.1311,-1.1312,0,-1.0904,-1.093,-1.0946,-1.0978,-1.0992,-1.1025,-1.1053,-1.1062,-1.1073,-1.1101,-1.1119,-1.1137,-1.1156,-1.1195,-1.1216,-1.1217,-1.1233,-1.1221,-1.122,-1.1224,-1.1289,-1.1289,-1.1208,-1.1208,-1.1208,-1.1208,-1.1208,-1.1208,-1.0864,-1.0866,-1.0892,-1.0907,-1.0933,-1.0947,-1.096,-1.098,-1.1002,-1.1021,-1.1037,-1.1063,-1.1095,-1.112,-1.1137,-1.1148,-1.1153,-1.1135,-1.115,-1.121,-1.1219,-1.1229,-1.1229,-1.1136,-1.1136,-1.1084,-1.1084,-1.1083]}]]